Location: Unspecified
(51.0950°N, 12.9690°E)
Time: 16:11:35
(UTC+00:00)

FALCON 9 DEB - Pass Details

Date: 28 October 2021
Orbit: 336 x 348 km, 53.0° (Epoch: 02 December)

Event Time Altitude Azimuth Distance (km) Brightness Sun altitude
Rises 16:32:55 0° 210° (SSW) 2,164 7.3 -7.4°
Reaches altitude 10° 16:35:13 10° 192° (SSW) 1,331 5.9 -7.8°
Maximum altitude 16:37:30 20° 142° (SE) 900 4.5 -8.1°
Enters shadow 16:39:35 11° 95° (E) 1,274 4.9 -8.4°
